Location: Burzi?i
(45.0869°N, 16.0577°E)
Time: 02:55:39
(UTC+00:00)

Aureole 3 Rocket - Pass Details

Date: 29 October 2020
Orbit: 399 x 1739 km, 82.5° (Epoch: 01 December)

Event Time Altitude Azimuth Distance (km) Brightness Sun altitude
Rises 16:18:13 0° 165° (SSE) 2,639 6.3 -6.0°
Reaches altitude 10° 16:20:10 10° 157° (SSE) 1,878 5.4 -6.4°
Maximum altitude 16:24:01 40° 87° (E) 1,026 3.7 -7.0°
Drops below altitude 10° 16:29:14 10° 20° (NNE) 2,567 5.9 -7.9°
Sets 16:32:17 0° 14° (NNE) 3,754 6.8 -8.5°
